Theta_e
343 343 348 344 343 345 341 342 340 340 340 340 340 336 334 334 339 341 343 343 343 344 344 344 344 344 344 342 335 332 330 330 331 332 336 338 338 341 342 341 341 340 339 337 336 336 337 335 337 337 334 332 330 330 330 330 329 329 328 330 330 331 332 333 336 336 336 336 336 337 337 337 337 337 336 336 335 334 334 334 333 333 334 334 334
342 343 348 344 344 344 341 342 339 340 340 341 339 334 333 332 334 336 340 341 342 343 343 343 343 343 342 337 331 330 332 333 332 332 335 336 336 340 342 342 341 339 338 337 336 336 337 337 336 333 331 332 333 333 333 333 333 331 330 329 329 330 331 332 333 334 334 334 335 335 336 336 336 337 336 336 335 333 332 333 334 333 334 334 334
344 344 347 346 344 343 342 343 341 341 340 341 338 334 334 333 332 332 334 336 338 340 340 341 341 340 338 333 330 333 337 337 336 337 338 337 337 340 342 342 340 338 338 337 337 337 339 339 333 331 333 334 335 334 333 333 333 333 332 329 329 329 330 331 332 333 334 336 335 335 335 335 335 336 336 335 334 333 332 332 333 334 335 335 334
345 343 346 346 343 344 344 343 341 341 340 341 339 334 333 332 331 330 330 331 332 335 336 339 340 339 336 334 333 337 339 337 338 340 340 340 339 340 341 341 339 339 339 338 339 339 340 337 331 333 334 334 334 333 332 331 331 333 333 331 329 329 330 331 332 333 335 337 337 336 336 336 335 335 336 335 333 333 333 332 333 334 334 333 333
345 343 347 346 345 345 343 343 341 340 340 341 339 332 329 328 328 330 330 330 329 329 330 334 338 339 338 338 337 338 339 337 338 340 341 341 339 339 340 340 339 339 339 339 339 340 340 336 332 334 334 334 333 332 331 330 331 332 333 332 329 329 329 331 331 333 335 337 336 336 335 337 336 335 335 334 333 332 332 332 332 333 334 333 332
345 343 347 346 346 346 343 344 341 340 340 341 340 329 325 327 330 333 332 331 328 326 324 326 333 338 338 338 338 338 340 338 338 340 341 340 338 339 339 340 339 339 339 339 340 340 340 337 333 334 333 333 333 332 331 330 330 332 333 332 330 329 329 330 331 333 336 338 337 336 335 336 336 335 334 333 333 333 332 332 331 332 334 335 333
345 344 346 345 347 346 344 344 340 340 340 341 340 328 325 329 332 334 332 331 327 325 322 321 330 336 337 337 338 339 339 338 338 341 340 338 338 338 339 339 339 339 338 338 339 339 340 337 333 333 332 332 332 332 331 330 330 331 333 332 330 329 329 330 330 334 338 339 337 336 336 336 336 335 333 333 333 333 333 333 333 332 334 335 334
345 345 346 345 347 346 343 343 340 340 340 342 340 328 325 330 333 334 333 330 327 328 328 327 332 336 336 335 337 337 338 340 339 341 340 337 337 338 339 339 338 338 338 338 338 338 340 336 331 332 331 331 331 331 330 329 330 331 333 332 331 330 330 330 331 336 339 339 338 336 337 337 337 336 333 334 335 335 335 335 334 333 333 334 334
345 346 346 345 347 345 343 343 341 339 340 342 340 329 325 331 333 334 334 330 328 329 331 334 335 336 336 336 336 336 337 340 340 341 340 336 336 338 338 338 338 338 338 338 338 338 339 333 330 331 330 330 330 330 329 328 329 331 333 332 331 330 330 330 333 338 340 339 338 337 337 337 337 336 334 334 335 336 336 335 335 334 333 333 334
345 346 346 346 347 344 342 343 341 339 341 342 341 333 328 332 334 335 334 331 329 327 331 336 336 336 337 336 336 336 337 339 340 340 340 336 337 339 338 338 338 338 338 338 338 338 336 330 329 330 329 330 329 329 328 328 329 331 332 332 331 331 330 331 336 339 339 339 338 338 338 337 337 337 335 335 335 335 335 334 334 334 334 334 334
345 345 345 346 346 344 341 343 342 339 341 342 342 337 331 334 336 335 334 332 329 327 332 336 336 336 336 336 336 336 337 339 340 340 339 336 337 338 338 339 337 337 336 336 337 337 332 328 329 328 328 328 327 327 326 327 329 331 332 332 331 331 331 334 338 339 338 338 339 339 338 337 338 336 335 335 335 335 335 334 334 334 335 334 334
344 345 344 345 346 343 341 342 341 339 341 342 343 340 333 333 337 336 335 333 329 328 331 335 337 337 337 337 337 337 338 338 340 340 338 337 338 338 338 338 337 335 335 336 336 334 329 328 328 327 328 326 325 325 325 328 330 331 332 331 331 331 333 336 337 338 338 338 338 339 338 337 337 335 335 336 336 336 335 335 335 334 335 334 334
344 344 344 345 346 344 342 342 341 339 341 342 342 342 337 334 338 338 336 334 331 330 330 332 336 337 337 337 337 337 337 338 340 340 338 338 337 338 338 337 336 334 335 336 334 330 328 328 328 327 326 324 324 323 325 329 331 331 332 332 331 331 333 336 337 337 338 338 338 339 338 338 336 335 336 337 336 336 336 336 335 335 335 334 334
343 344 344 345 346 343 342 342 341 339 340 342 342 343 339 336 339 339 337 336 335 333 329 330 335 337 337 338 338 337 337 337 339 340 339 337 336 337 336 336 335 333 335 334 330 328 328 328 327 326 325 324 323 322 325 330 331 332 332 331 332 332 334 336 337 338 337 338 339 339 340 338 336 335 337 336 336 336 336 336 335 335 335 334 333
343 344 343 345 346 343 342 342 340 339 340 343 343 343 341 337 338 339 338 337 338 335 331 329 333 336 337 338 337 336 337 338 339 339 338 336 334 335 335 335 333 332 334 331 328 328 328 328 327 326 324 323 322 321 326 331 332 332 332 332 332 333 336 337 337 338 338 338 339 339 340 337 334 336 337 336 336 336 336 335 335 334 334 333 333
343 343 343 344 345 344 343 342 340 339 340 342 343 343 341 338 338 340 338 338 339 338 334 330 331 334 335 336 336 336 338 340 339 338 338 337 335 333 332 333 331 331 332 329 328 329 328 328 327 326 324 322 321 322 326 331 332 332 332 332 333 334 336 338 337 338 338 338 339 339 339 337 334 336 337 337 336 336 335 335 334 334 333 333 332
343 343 343 344 344 344 343 342 341 339 340 342 342 343 341 339 339 340 338 338 340 338 336 332 330 331 333 335 335 336 338 339 338 338 338 338 337 335 332 330 330 332 331 329 329 329 328 328 327 326 324 322 321 324 328 332 332 332 332 333 333 334 336 338 338 338 338 338 339 339 339 336 335 336 337 337 336 336 335 335 334 333 333 332 331
342 342 343 343 343 343 343 343 342 341 340 341 342 342 342 340 339 340 339 338 340 339 337 335 331 331 331 334 334 335 337 338 338 338 338 338 338 337 334 330 331 333 331 329 329 329 328 327 327 326 324 322 321 326 330 332 332 332 332 334 334 334 336 339 339 338 339 339 340 340 338 336 335 337 337 337 336 336 335 334 334 333 332 331 330
342 343 343 342 342 343 343 343 343 343 342 342 342 343 342 340 339 340 340 338 340 340 338 336 334 333 331 332 334 335 336 337 337 338 338 338 337 337 335 333 332 333 332 329 328 328 328 327 327 326 324 322 321 326 331 333 333 333 333 334 334 335 337 339 339 338 338 339 340 340 337 335 336 337 337 336 336 335 334 334 333 332 332 331 331
343 343 343 341 342 342 342 342 343 344 343 343 343 344 342 340 340 340 340 338 339 340 338 336 336 335 331 329 331 334 335 336 336 337 337 337 337 337 336 334 333 333 332 329 328 328 327 327 327 326 325 322 322 325 331 333 334 334 334 335 335 338 340 340 339 338 338 338 339 338 336 336 337 337 336 336 335 334 334 333 332 331 331 330 330
342 342 342 341 342 343 342 342 343 343 344 344 344 345 342 341 341 341 340 338 339 339 337 337 337 335 332 328 329 333 334 334 335 336 337 337 336 337 336 334 332 332 333 330 328 328 327 328 327 326 324 323 323 325 329 332 334 335 335 335 337 341 342 340 339 338 338 337 338 337 336 337 336 337 336 335 335 334 334 333 332 330 330 328 327
342 342 341 342 342 342 342 342 343 343 345 345 344 345 343 342 342 342 341 340 340 340 338 338 337 336 334 332 332 335 334 333 334 334 336 336 335 336 336 335 332 331 333 331 328 328 328 327 327 325 324 322 324 329 331 331 333 334 335 336 338 341 341 341 339 338 338 337 338 337 336 336 336 336 335 335 335 334 333 332 331 330 329 325 320
343 342 342 342 342 341 342 342 343 344 344 345 344 345 344 343 343 343 342 341 341 341 339 338 337 335 335 335 335 335 335 334 333 334 336 337 336 335 336 335 333 331 331 330 328 329 328 327 327 325 322 321 327 334 334 334 334 333 335 336 339 341 341 340 338 337 338 337 337 336 336 335 335 336 335 335 334 333 333 331 330 328 324 315 308
344 343 342 342 342 341 342 342 342 344 344 344 344 345 345 343 344 344 343 342 342 341 339 336 336 336 335 335 334 334 334 334 333 334 336 337 336 335 335 335 334 332 330 330 330 329 328 328 326 323 323 325 330 334 334 337 337 335 337 337 339 341 341 340 338 337 337 337 336 335 335 334 334 335 334 334 333 333 331 330 330 323 312 303 301
345 344 343 343 342 342 342 341 342 343 343 343 343 344 344 344 343 344 343 343 342 341 338 335 335 336 336 335 334 334 334 334 333 334 334 335 335 334 335 335 335 333 329 332 334 330 329 330 328 326 328 330 332 332 332 336 337 336 337 337 339 341 340 339 338 337 337 337 336 335 335 334 334 334 334 334 333 332 330 330 328 314 302 300 301
345 344 343 342 342 342 342 341 342 343 343 342 342 342 344 344 343 344 344 343 342 340 337 335 335 335 336 335 334 335 335 335 334 334 334 334 334 334 334 333 335 334 331 334 336 332 331 332 332 331 332 332 332 333 334 336 336 336 336 338 339 340 339 338 338 337 337 336 335 334 334 333 334 333 333 333 331 330 329 328 319 305 300 300 300
344 343 342 342 342 342 342 341 342 342 342 342 342 341 342 344 343 343 343 343 342 339 336 336 336 335 336 335 335 335 335 336 335 335 335 334 335 335 334 334 334 334 333 335 335 333 332 332 334 334 332 332 332 334 335 336 336 335 336 338 339 340 339 338 337 337 336 335 333 333 333 333 333 332 332 331 330 328 325 318 308 304 303 303 303
344 343 343 342 341 341 341 341 341 342 342 342 341 341 341 343 343 342 342 342 341 338 336 336 336 336 336 336 336 336 336 336 336 336 336 335 336 335 335 334 334 335 334 335 333 332 333 333 334 334 332 331 332 334 335 336 336 336 337 338 339 339 338 337 337 336 335 334 332 331 330 331 331 331 330 329 326 322 315 310 308 310 308 308 309
345 344 343 342 341 341 341 341 341 341 341 342 341 341 341 342 342 342 341 342 340 337 335 336 336 335 335 335 335 336 336 336 337 337 336 336 336 335 336 335 335 335 333 334 334 334 334 334 334 333 332 331 333 334 335 335 336 337 338 339 339 338 337 337 336 335 334 333 331 329 327 327 326 326 325 324 320 315 311 311 313 313 311 310 311
346 345 344 343 341 340 340 340 340 340 341 341 341 340 341 342 342 341 341 341 339 336 335 336 334 332 333 334 334 335 336 336 337 337 336 336 336 335 336 336 336 335 333 334 336 335 334 334 334 332 332 332 332 335 336 335 337 338 339 339 338 337 337 336 335 334 332 331 330 326 323 322 321 321 320 319 317 315 316 317 317 316 314 313 313
346 346 345 343 342 340 340 340 339 339 340 341 340 340 341 341 341 341 341 340 338 336 336 335 333 332 332 333 333 332 334 336 336 336 336 336 335 335 335 334 334 332 332 335 335 335 335 335 334 333 332 332 332 335 337 337 338 339 338 338 337 337 336 334 332 332 331 329 328 326 321 318 317 317 316 315 316 319 321 321 320 318 316 316 316
346 345 344 343 342 341 340 340 339 339 340 340 340 340 340 340 340 341 341 340 338 336 336 334 332 334 334 332 332 330 332 335 335 335 335 335 334 334 334 333 333 331 332 335 335 335 337 336 336 336 335 334 335 337 338 339 339 338 337 337 337 336 334 331 329 329 330 329 327 327 324 321 316 313 312 312 315 319 321 320 320 319 318 317 317
346 345 344 343 342 341 340 340 339 339 340 340 339 340 340 340 340 340 340 340 338 336 336 333 332 336 335 333 334 333 334 335 335 336 336 336 335 334 334 333 333 332 333 336 337 337 337 337 338 338 338 338 339 340 339 339 339 338 337 337 336 334 331 328 326 328 329 329 327 326 325 324 320 316 314 315 318 320 320 320 319 319 318 318 317
346 345 344 343 342 342 341 340 339 339 340 339 339 339 339 339 339 340 340 340 338 336 336 332 332 338 337 336 337 336 337 337 337 339 339 339 338 337 337 337 337 336 336 337 338 338 337 338 339 340 340 340 340 340 339 339 338 338 337 336 334 331 329 328 327 328 328 327 326 324 322 322 322 320 318 318 320 320 319 319 319 318 317 317 316
346 345 345 344 343 342 341 341 340 340 340 339 339 339 339 339 339 339 340 340 337 337 336 332 333 339 338 338 339 338 339 340 340 341 340 340 340 339 340 340 340 339 339 339 339 340 339 340 340 340 340 339 339 339 338 338 338 337 337 335 332 330 328 328 327 327 327 325 323 321 320 319 319 320 319 318 318 319 319 318 317 317 316 316 316
346 345 345 344 343 342 341 341 340 340 340 339 339 339 339 339 339 339 339 339 337 337 336 331 332 338 339 338 339 339 340 340 340 341 341 341 340 340 340 341 341 340 340 339 340 340 341 341 340 340 339 339 338 338 338 338 337 337 336 334 331 328 327 327 326 326 325 322 320 319 318 317 316 316 318 318 318 317 316 316 317 317 316 316 316
347 346 345 345 344 343 342 342 341 340 340 339 340 339 339 338 338 339 339 339 337 338 337 330 330 336 338 338 339 340 340 339 340 340 341 341 341 341 340 341 340 339 339 340 340 340 341 341 340 339 339 339 338 337 338 337 337 336 334 332 330 327 327 327 327 326 324 320 318 318 317 316 313 312 315 317 318 316 314 313 314 314 315 315 314
347 346 346 345 345 343 342 342 342 341 340 340 340 339 339 338 338 339 339 339 337 339 338 330 327 333 338 339 339 340 340 339 339 340 340 340 341 340 340 340 340 339 340 340 340 340 340 340 339 337 338 338 337 337 337 337 336 335 333 330 328 327 327 326 326 325 322 318 317 317 316 314 311 312 314 315 316 316 314 309 307 309 310 311 313
347 347 346 346 345 345 343 342 342 341 340 339 339 339 339 338 338 338 339 339 338 339 339 332 326 331 337 339 339 339 340 339 339 340 340 340 341 340 340 339 339 339 340 339 340 340 339 339 338 337 337 337 338 337 337 336 335 333 331 329 327 326 326 326 325 324 320 317 316 316 315 313 311 311 312 312 314 315 315 311 308 308 305 304 308
347 347 347 346 346 345 344 343 342 342 341 340 339 339 338 338 338 339 339 339 339 338 340 335 329 331 336 339 339 340 340 339 339 340 340 340 340 340 339 339 339 340 339 339 340 339 338 338 337 337 336 336 337 337 336 335 333 330 327 326 325 325 325 325 324 322 320 317 316 316 315 312 311 311 310 310 311 311 313 312 311 311 307 301 301
346 346 346 346 346 346 345 344 343 342 341 341 340 338 338 338 338 338 339 339 339 338 339 338 333 332 336 338 339 340 340 339 339 340 340 340 340 340 340 339 339 339 339 339 339 339 337 337 336 336 335 335 335 336 335 333 332 329 327 325 324 323 324 324 323 321 319 318 317 316 315 312 311 311 310 309 308 308 309 310 309 309 308 304 302
346 346 347 347 346 346 345 344 343 342 342 341 340 339 338 338 338 339 339 339 339 338 338 339 337 334 334 337 339 340 340 340 339 339 340 340 340 340 340 340 339 338 339 340 339 338 337 336 336 336 335 335 335 335 333 333 332 331 330 328 326 324 324 324 323 321 319 318 317 317 315 313 311 311 309 308 307 307 307 308 307 307 307 307 306
346 346 347 347 346 346 346 345 344 343 343 342 341 340 339 339 339 339 339 339 339 338 338 340 339 335 334 335 338 340 340 340 339 339 340 340 340 340 340 340 339 338 339 340 339 338 337 336 336 335 335 334 334 334 333 333 332 332 331 330 329 328 326 324 323 321 320 318 317 316 315 313 311 310 309 308 308 307 306 307 307 308 307 308 308
346 346 346 346 345 346 346 346 345 344 343 342 341 341 340 340 340 340 340 340 339 339 340 341 340 337 336 336 338 340 340 339 339 339 339 340 340 340 340 340 339 338 339 340 340 338 337 336 336 335 335 334 334 334 333 333 332 331 331 330 329 328 327 325 323 321 320 318 317 316 315 313 311 310 309 309 309 307 307 307 307 308 307 308 308
345 346 346 345 344 345 345 346 346 346 345 343 342 342 341 341 341 341 341 341 340 340 341 342 341 339 337 337 338 339 340 340 339 339 339 339 340 340 340 340 338 338 338 340 340 338 337 337 335 335 334 334 334 334 333 333 332 331 331 330 329 328 328 326 324 322 319 318 317 316 315 314 312 311 310 309 309 308 307 307 307 308 308 308 308
345 346 346 344 344 345 344 345 346 346 346 344 343 342 342 341 341 341 341 342 341 341 341 342 342 339 337 338 339 340 340 340 340 339 339 339 340 340 340 340 339 338 338 339 340 339 338 337 336 335 334 333 334 333 333 332 331 330 330 331 331 331 330 326 325 324 320 318 317 316 315 314 313 311 310 309 309 308 308 308 308 308 308 308 308
348 347 347 346 346 346 345 344 345 347 347 345 344 343 343 342 341 341 341 341 341 341 341 342 343 340 338 339 340 341 340 340 340 339 339 339 339 339 340 340 339 339 338 338 339 339 338 337 336 335 334 333 333 333 333 332 331 330 330 330 330 330 329 327 327 326 323 320 318 317 316 315 314 312 311 309 309 309 308 308 308 307 308 308 308
350 349 348 347 347 346 345 345 346 347 346 346 345 344 343 342 342 342 341 342 342 342 341 342 342 341 340 340 341 341 340 339 339 339 339 339 339 339 340 340 339 339 339 339 339 339 338 337 336 335 334 333 333 333 332 332 331 330 329 329 329 328 328 328 329 328 326 324 320 318 317 315 315 313 311 310 309 309 309 308 308 308 308 308 308
350 350 349 348 347 347 346 345 346 346 346 346 346 345 344 344 343 343 342 342 342 342 342 342 342 342 341 341 341 340 340 339 339 339 339 339 339 339 340 340 339 339 339 338 338 338 337 337 335 334 334 334 333 332 332 331 331 330 329 328 328 328 328 328 328 328 328 328 324 320 318 317 316 314 313 311 310 310 309 307 308 308 308 308 308
349 350 350 348 347 347 346 345 345 346 346 346 346 346 345 345 344 343 343 342 342 342 342 342 343 342 342 342 341 340 339 339 339 339 339 339 339 339 340 339 339 339 338 337 338 337 336 335 335 334 334 334 333 332 332 332 331 331 331 330 329 329 328 328 328 327 328 328 326 323 321 320 318 316 314 312 310 309 309 308 308 307 308 308 307
350 350 349 347 347 346 345 345 345 345 346 346 346 346 346 345 345 344 344 344 343 342 343 344 343 342 342 342 341 340 339 338 339 339 339 339 339 339 340 340 339 339 338 337 337 337 335 334 334 334 333 333 333 332 332 332 331 331 331 331 330 329 329 328 328 328 327 328 327 325 323 322 320 319 315 312 310 309 309 308 308 307 308 308 307
Wind_Speed
20 22 20 25 24 21 20 19 18 17 16 16 17 17 17 17 17 17 16 16 16 15 15 14 14 14 13 14 15 15 15 14 14 15 15 16 18 18 16 14 14 14 15 15 16 17 17 17 17 16 17 18 18 18 18 17 17 16 16 16 16 16 15 15 14 13 14 14 14 14 15 14 14 15 15 16 16 17 17 16 16 16 16 16 16
25 23 21 25 24 22 21 19 18 18 17 17 18 19 19 18 17 17 16 16 15 15 15 14 14 14 14 15 16 16 15 14 14 14 15 16 17 18 17 15 13 14 15 15 16 17 17 16 17 18 19 19 18 17 16 15 15 15 14 14 14 15 15 15 14 14 14 14 14 15 15 15 15 14 14 14 15 17 17 17 16 16 15 14 16
27 23 21 24 25 23 21 20 19 19 18 17 18 20 20 19 18 17 17 16 15 15 15 16 14 14 14 16 17 16 13 13 14 15 15 16 17 18 17 14 13 14 16 16 17 17 16 16 18 20 19 17 16 15 15 14 13 13 12 13 13 13 14 14 13 13 13 13 13 15 16 16 16 14 14 14 15 17 17 16 16 15 14 13 14
26 24 22 25 24 23 22 20 20 19 19 18 18 21 21 20 19 17 16 16 16 15 15 17 16 13 14 15 15 14 13 13 14 15 16 16 17 18 16 14 14 15 16 16 17 17 16 15 18 19 17 15 14 14 13 13 12 11 11 11 12 12 13 13 13 12 12 13 11 12 14 15 15 14 13 14 16 16 16 15 15 14 14 14 14
26 25 23 25 23 23 22 20 20 19 20 19 19 21 21 20 19 17 16 15 15 15 15 17 16 15 14 14 13 13 13 13 14 16 17 15 16 18 16 14 15 15 15 16 16 16 15 16 18 17 15 14 13 13 12 11 10 10 10 10 11 11 12 12 12 12 13 14 12 10 11 13 14 14 13 14 16 16 16 15 14 13 14 16 14
26 24 24 25 23 23 23 22 20 20 20 19 19 22 22 20 19 16 16 14 13 13 13 15 17 17 15 14 13 13 13 12 14 16 16 14 16 17 16 15 16 15 15 15 16 15 14 15 16 15 14 13 11 11 10 9 9 8 8 10 10 11 11 11 11 11 12 12 11 10 11 12 13 13 13 13 14 15 15 15 14 14 13 14 14
24 23 24 25 24 23 24 23 21 22 21 19 19 22 22 20 18 16 15 13 12 11 11 14 17 17 16 15 14 15 14 12 14 16 15 14 16 17 17 16 16 15 15 15 15 14 12 13 15 13 12 12 11 10 9 8 7 6 7 9 10 11 11 10 10 10 10 9 9 10 10 12 12 13 14 13 12 13 13 13 13 13 12 11 12
23 23 24 24 23 24 25 23 22 23 22 20 19 21 22 20 18 16 15 13 12 11 12 14 16 18 17 16 15 15 15 13 15 16 14 15 17 18 17 16 16 15 15 15 14 13 12 12 14 12 11 10 10 9 8 6 6 5 7 9 10 10 10 10 10 11 10 7 8 9 10 11 11 12 13 12 10 11 11 11 11 12 12 11 11
23 23 23 23 22 25 26 24 23 24 24 21 19 21 21 20 19 17 15 13 12 12 14 14 15 18 18 17 16 16 16 14 14 14 13 15 18 18 17 16 15 15 15 15 14 13 11 12 13 11 10 9 8 8 7 6 5 5 7 10 11 10 10 10 10 10 8 7 8 9 10 10 11 11 12 12 10 9 9 9 10 11 11 10 10
24 23 23 21 21 25 27 25 24 24 24 21 20 21 20 19 18 17 15 13 12 13 16 15 15 16 17 17 16 17 16 14 14 14 13 16 18 18 18 17 15 15 15 15 14 12 12 13 12 11 9 8 7 7 6 5 5 6 9 11 11 10 9 10 10 8 6 7 8 9 10 11 10 11 11 11 10 10 8 8 9 9 9 10 9
23 22 21 20 21 26 27 25 24 25 24 21 19 20 20 18 17 16 15 13 13 14 16 16 15 15 16 16 16 17 16 14 15 15 14 17 18 18 17 15 14 14 14 14 12 12 13 13 11 10 9 7 7 7 6 5 6 8 11 12 11 10 9 9 8 6 6 7 8 8 9 11 10 10 10 10 9 9 8 8 9 9 9 10 9
22 21 20 20 22 26 27 25 24 25 24 22 19 19 19 18 17 15 14 13 13 13 15 16 16 15 15 16 16 17 16 16 17 17 16 17 18 17 16 14 13 13 14 13 12 13 14 13 11 10 8 7 6 6 6 6 7 9 12 12 11 10 10 9 6 4 6 7 7 7 8 10 10 9 9 8 8 8 8 8 9 9 9 10 10
23 20 19 19 21 26 27 25 25 24 24 22 19 19 19 19 17 16 14 13 14 13 13 16 16 15 15 15 15 17 17 17 17 18 17 17 18 16 14 14 13 14 14 13 14 15 15 13 11 10 8 6 6 6 6 7 8 10 13 12 11 10 10 9 5 4 6 6 7 7 7 9 9 8 8 7 7 7 8 8 9 9 9 9 9
23 20 19 19 20 25 27 24 24 24 25 22 20 19 18 19 18 16 15 14 14 13 12 15 17 15 15 15 15 17 17 17 18 19 18 18 17 15 14 13 13 14 14 14 15 16 14 12 11 10 8 7 6 6 6 7 9 11 13 12 11 10 10 7 5 5 5 6 6 6 7 8 8 7 7 6 7 7 7 8 9 9 10 10 10
21 20 21 19 20 24 25 24 24 24 25 23 21 19 18 19 18 17 16 15 15 14 12 13 16 15 15 16 16 17 16 16 19 20 18 17 15 15 13 12 13 13 13 14 16 15 14 12 10 9 8 7 6 6 7 8 10 12 13 11 10 9 8 5 4 5 5 5 6 6 7 7 7 7 6 6 6 7 8 8 9 10 10 11 11
18 20 21 20 20 22 23 23 23 24 25 23 21 19 18 19 19 18 16 15 15 15 12 12 15 15 15 17 17 17 16 16 19 19 17 15 14 13 13 12 13 13 12 14 15 15 14 12 10 9 8 7 6 7 7 9 10 12 12 11 9 9 8 5 4 5 4 5 5 6 7 7 7 7 6 6 7 9 9 9 10 10 11 11 11
17 18 19 20 20 21 21 21 22 23 24 23 21 20 19 19 19 18 17 16 16 15 13 12 14 15 15 16 17 17 16 16 17 17 15 13 12 11 11 12 13 12 12 13 14 14 13 12 10 9 8 8 7 7 8 9 11 12 11 10 9 8 8 7 5 5 5 5 5 6 7 7 7 6 6 7 9 10 10 10 10 10 10 10 9
16 16 17 18 20 21 21 20 21 21 22 22 20 19 19 19 19 18 17 16 15 15 13 13 13 13 14 16 17 16 15 15 15 15 14 13 12 11 10 11 12 11 11 12 13 13 13 12 10 9 8 8 7 8 9 10 11 11 10 9 7 7 8 7 5 5 5 5 5 6 7 7 7 7 8 9 10 10 10 10 10 10 9 8 8
15 16 16 17 19 20 20 20 19 19 20 20 19 19 19 19 19 18 17 16 15 15 14 13 14 13 13 15 17 16 15 14 13 13 13 13 12 11 10 10 11 11 10 12 12 12 12 11 10 9 8 8 8 8 9 10 10 10 9 7 7 7 7 6 5 5 5 5 6 7 7 7 7 8 9 10 10 10 10 9 9 8 8 8 7
14 15 16 17 18 19 20 20 20 20 20 19 18 18 18 18 18 18 17 16 15 15 14 13 14 12 11 14 17 17 14 13 12 12 12 12 11 11 10 10 11 11 10 11 12 11 11 11 10 9 8 8 8 8 9 9 9 9 8 7 6 6 5 4 5 5 5 6 6 6 7 8 9 9 10 10 10 9 9 8 7 6 6 6 6
14 15 16 17 18 19 19 20 20 20 20 19 18 17 18 18 17 17 17 16 15 14 13 12 12 10 9 12 15 15 14 13 13 12 12 11 11 13 11 10 11 11 10 11 12 11 11 10 9 9 9 9 8 8 8 9 9 9 8 7 5 4 4 5 5 5 5 6 6 7 8 9 9 9 9 9 8 8 8 7 6 5 5 5 5
15 16 16 17 18 18 19 19 19 21 20 19 19 17 17 18 17 16 16 16 16 14 12 12 11 11 11 11 12 14 14 13 14 13 12 11 13 14 12 10 11 11 11 11 12 11 11 10 9 9 9 9 9 8 8 8 8 9 9 6 4 4 5 5 5 5 6 7 7 8 9 9 9 8 8 8 7 7 7 6 5 4 5 6 6
18 18 18 18 19 18 19 19 19 21 20 18 18 18 17 18 18 16 15 15 15 14 13 13 12 12 13 12 12 12 13 13 14 13 12 13 14 15 13 11 11 11 12 12 12 11 11 10 9 8 8 9 8 7 8 8 8 9 7 4 3 5 6 5 5 6 7 7 8 8 9 8 8 7 7 7 6 6 5 4 4 4 6 6 5
18 18 18 19 19 18 19 19 19 20 21 18 17 18 17 18 19 17 15 16 16 15 14 14 13 13 13 13 12 12 13 12 14 13 12 13 12 14 14 11 10 11 13 12 11 11 10 9 8 8 8 8 8 7 7 8 8 7 5 3 4 6 6 5 5 7 7 7 8 8 8 8 7 6 6 6 6 4 3 3 4 6 6 5 5
17 17 18 19 20 19 20 20 20 20 20 19 17 18 18 18 18 18 16 17 17 16 15 14 13 14 13 13 13 13 13 12 15 14 13 13 11 13 13 11 9 10 13 12 10 10 10 8 8 8 8 8 8 7 6 7 7 6 4 3 5 6 5 4 5 6 7 7 8 8 7 6 6 5 5 5 5 4 3 3 6 6 5 5 5
16 16 17 19 21 20 20 20 20 21 21 19 18 17 18 17 17 18 17 17 17 16 15 14 14 15 14 13 13 13 13 12 14 14 13 13 12 13 13 12 11 10 12 11 10 10 10 9 9 8 8 8 7 7 7 6 6 5 4 4 5 6 5 5 5 6 7 8 8 6 5 5 5 5 5 5 4 3 3 5 5 5 5 5 6
16 15 16 18 21 22 21 21 21 21 21 19 18 17 18 17 17 17 17 16 17 16 15 14 14 15 14 13 14 13 13 13 13 14 13 13 12 12 12 12 11 11 11 11 10 10 9 9 8 8 8 7 7 7 7 7 6 5 4 5 6 6 6 5 6 6 7 8 8 6 5 6 6 7 7 6 4 1 2 3 4 6 6 6 7
16 15 16 17 21 23 22 22 21 21 21 20 18 17 17 17 17 17 17 16 17 16 14 14 14 14 14 14 14 13 13 13 13 13 13 12 12 11 11 11 11 10 11 10 10 10 9 8 8 7 7 7 7 7 7 7 6 5 5 6 6 6 6 6 6 7 8 9 8 6 7 7 7 8 7 5 2 2 3 4 6 7 7 7 7
16 16 16 17 20 22 23 22 21 21 21 20 19 18 17 17 17 17 17 16 16 16 14 13 13 14 15 14 14 13 13 13 13 13 12 12 11 11 11 11 10 10 10 10 9 9 9 8 8 8 8 7 7 7 7 7 6 5 6 6 6 6 7 7 7 8 8 9 9 7 7 7 6 6 5 3 3 4 5 7 8 8 8 8 8
15 16 16 16 18 21 23 22 22 21 21 20 20 18 18 18 18 18 17 16 17 16 14 13 13 13 15 15 14 14 13 13 13 13 12 12 11 11 10 10 10 9 10 9 8 8 8 8 8 8 8 7 7 8 7 7 6 6 6 7 7 7 7 7 7 7 8 8 9 9 7 6 6 5 4 4 5 6 7 8 9 9 9 9 9
15 15 15 14 16 19 21 22 22 21 21 21 20 19 18 18 18 18 17 16 17 16 13 12 12 13 14 15 15 15 14 13 13 13 12 12 11 11 10 10 10 10 10 9 8 8 7 8 7 7 7 7 7 7 7 6 6 6 6 7 7 7 7 7 7 7 7 8 8 9 7 5 5 4 4 5 6 8 9 10 10 10 9 9 9
15 16 15 14 16 18 20 21 21 21 22 21 20 19 19 18 18 18 17 17 17 15 12 12 13 13 14 16 15 15 14 13 13 13 12 11 11 11 10 10 10 10 10 8 8 8 7 7 7 7 7 7 7 7 7 6 6 6 6 7 7 7 8 8 9 7 6 7 6 6 7 6 4 3 4 5 7 9 10 10 10 9 9 9 9
16 16 17 16 17 18 19 20 21 22 22 21 20 20 19 18 18 18 17 17 17 15 12 12 13 13 15 16 15 15 14 13 14 13 11 11 11 11 10 10 10 10 10 9 9 8 7 8 8 7 7 7 7 7 7 6 6 6 7 7 7 8 8 9 9 7 5 5 5 5 5 7 6 5 6 7 8 10 10 10 9 9 9 8 8
16 18 19 19 19 19 20 21 23 24 23 22 21 20 19 18 18 18 17 17 16 14 11 12 14 14 15 16 14 14 13 13 13 12 12 11 11 11 10 10 11 11 10 10 10 9 9 9 8 8 8 8 8 8 8 7 7 7 7 7 7 8 8 9 8 6 5 5 5 5 4 5 5 6 7 8 10 10 10 10 9 9 8 7 7
18 19 21 21 21 20 21 21 24 25 24 23 22 20 19 18 18 18 17 17 16 14 12 13 15 14 16 15 15 15 14 13 13 13 13 12 12 12 11 11 10 11 10 10 10 9 9 9 9 8 8 8 8 8 8 7 8 8 8 8 8 8 7 8 7 6 5 5 5 5 4 4 4 6 7 8 9 9 10 9 8 8 7 6 5
20 20 21 22 22 22 22 21 23 26 25 24 23 20 19 18 17 17 17 17 17 14 12 14 16 15 16 16 16 16 15 15 14 13 13 13 13 12 12 11 9 9 10 10 10 9 9 8 9 9 9 8 8 9 8 8 8 9 8 8 8 9 7 7 7 5 5 5 5 4 4 4 4 6 6 7 8 9 10 9 8 8 6 5 5
22 21 23 24 23 23 22 21 22 25 25 24 23 21 20 19 17 17 18 18 17 15 13 15 17 16 16 16 17 17 16 16 14 13 13 13 12 11 11 10 9 9 9 10 10 9 9 9 9 9 9 8 9 9 8 8 9 9 9 8 9 9 8 7 6 4 4 4 4 4 4 4 5 6 6 6 7 8 9 10 9 8 7 6 5
22 22 23 24 25 24 23 22 22 24 25 24 23 22 20 18 17 17 18 19 18 16 14 15 17 17 16 16 17 18 17 16 15 14 14 13 11 11 10 9 10 10 9 10 10 9 9 9 9 9 9 8 9 9 9 9 10 9 9 8 8 8 8 7 6 4 4 4 4 4 4 5 5 6 6 6 7 7 8 8 8 7 7 7 5
22 22 22 23 24 24 23 22 22 23 24 24 23 22 20 19 18 17 18 19 18 16 15 16 17 18 17 16 17 18 17 16 15 15 14 12 11 11 10 10 10 10 10 10 10 10 10 10 9 9 9 8 8 9 9 10 10 9 9 8 7 7 7 6 5 5 4 5 5 5 4 5 5 5 6 6 6 7 7 7 6 6 6 6 6
21 21 23 25 24 24 24 22 22 23 24 24 24 22 21 20 19 18 19 19 19 18 16 16 17 18 17 17 18 18 17 16 15 15 14 13 12 11 10 10 10 11 11 11 10 10 11 11 10 10 10 9 8 9 10 11 11 9 9 7 7 7 7 6 5 5 5 5 5 5 5 5 6 6 6 6 6 6 7 7 6 6 6 5 5
21 22 25 27 26 25 25 24 23 24 24 24 23 23 22 21 21 20 20 20 20 18 18 17 17 18 18 17 18 18 16 16 15 15 15 13 12 12 11 10 11 11 11 11 11 10 11 12 11 11 11 10 9 10 11 12 11 10 8 6 6 7 7 6 5 6 6 6 5 5 5 5 6 6 6 6 6 7 7 7 6 6 5 4 3
23 26 27 27 26 25 26 25 25 25 25 24 23 23 22 20 20 20 19 20 20 19 19 18 17 17 19 18 17 17 16 16 16 15 15 14 13 12 11 11 11 11 11 11 11 11 12 12 11 11 11 10 10 11 13 13 11 10 9 7 6 7 7 7 7 7 7 7 6 6 6 6 6 7 6 6 6 6 7 7 6 5 5 4 3
23 25 25 24 25 25 26 26 26 26 26 25 23 23 22 20 18 18 18 18 19 19 17 17 18 17 19 19 18 17 18 17 16 15 15 15 14 13 12 11 12 11 11 11 12 12 13 13 13 12 11 11 10 12 15 13 9 9 10 7 5 6 6 9 10 10 10 8 7 7 7 7 7 7 7 6 7 6 6 7 6 6 5 3 3
22 25 24 24 26 26 26 26 27 27 27 26 24 22 22 21 18 17 17 17 18 18 16 16 18 18 19 20 19 18 18 17 16 16 15 15 15 13 12 11 12 12 12 12 13 14 14 13 14 13 12 11 10 11 14 13 10 9 8 4 4 5 5 8 12 11 11 10 9 8 7 7 8 8 7 6 7 7 7 7 7 6 5 4 3
25 27 26 27 29 29 29 28 27 27 27 27 25 23 22 22 20 18 18 18 18 19 18 18 19 20 20 20 20 19 19 18 17 17 16 16 16 14 12 12 13 13 13 13 13 14 14 14 15 14 13 12 11 11 12 12 12 10 8 4 3 4 4 6 10 9 10 11 10 10 9 8 9 8 7 7 7 7 7 8 7 7 6 5 4
26 28 29 31 30 28 30 30 28 27 26 28 28 25 24 24 23 22 22 22 22 22 21 20 21 21 20 20 20 19 20 19 18 18 17 16 16 15 14 13 14 14 14 14 13 14 14 15 15 14 14 13 12 11 12 12 12 11 11 8 5 4 2 5 5 4 9 11 11 11 11 10 10 9 9 8 8 8 8 9 9 8 7 6 5
26 27 28 29 27 25 28 31 29 26 26 28 30 27 25 26 25 24 24 24 24 23 22 21 21 21 20 20 20 19 20 20 19 19 18 17 16 15 15 14 14 14 14 14 13 14 14 14 15 14 14 14 13 12 12 12 12 12 12 11 9 7 5 4 4 3 5 8 10 12 12 12 11 11 10 9 9 9 8 9 9 9 8 6 6
24 25 25 27 27 26 28 29 27 25 26 28 30 29 27 28 27 25 23 23 23 21 21 21 21 21 20 21 20 21 22 22 21 19 19 18 16 16 16 16 15 14 14 14 14 14 14 14 15 15 14 14 14 13 12 12 12 12 12 12 11 10 10 10 10 9 5 4 8 11 12 12 12 12 11 10 10 10 9 9 9 8 8 7 6
23 23 24 25 26 25 25 26 25 24 26 28 29 29 28 28 28 26 23 22 21 21 20 21 21 22 22 22 22 22 23 23 22 20 19 19 17 16 16 16 15 15 15 14 14 15 15 15 15 16 15 14 14 14 12 12 12 12 11 12 12 11 12 12 12 11 9 7 4 7 10 11 11 12 12 10 10 10 10 10 9 8 7 6 6
22 22 22 21 24 24 24 26 27 25 25 27 29 28 27 27 27 26 25 23 22 22 21 21 23 23 23 24 23 23 23 23 22 21 20 20 18 17 17 17 16 16 15 15 14 15 16 17 16 16 16 15 14 14 13 13 13 12 11 12 12 12 12 11 11 11 11 10 6 6 10 12 9 11 13 12 11 10 10 10 9 8 8 6 6
19 21 22 22 24 24 25 27 28 27 25 27 29 28 29 29 26 26 27 25 24 23 22 23 24 24 24 24 24 23 24 24 23 22 21 20 19 19 18 17 17 17 16 15 15 15 16 17 16 16 16 15 14 13 14 14 13 13 13 14 13 12 12 11 11 11 10 10 7 7 9 10 9 10 13 13 12 12 11 10 10 9 8 6 5
Wind_Direction
162 160 161 172 172 172 173 173 172 166 164 160 157 156 154 150 145 143 145 148 152 153 154 157 156 158 154 151 150 146 143 141 139 135 131 129 129 125 122 118 114 115 114 112 111 111 109 109 107 103 100 98 96 92 90 88 85 83 83 84 86 87 86 86 85 86 83 81 81 80 78 76 73 70 69 67 68 75 77 72 65 59 57 55 54
158 158 158 171 171 172 173 172 171 165 165 161 161 162 160 157 152 147 146 147 148 147 149 152 153 153 149 149 148 143 139 138 135 133 132 130 129 126 123 120 121 121 117 114 113 112 110 110 108 107 105 102 100 96 94 91 88 86 84 83 83 87 88 88 89 91 89 86 84 82 81 78 75 72 70 69 68 70 74 76 70 63 61 58 56
151 155 156 168 171 172 173 171 171 166 163 161 163 165 164 161 159 156 153 153 152 150 149 150 150 152 149 149 149 142 140 139 134 131 130 129 127 126 125 124 126 122 117 117 114 113 111 111 111 111 110 106 104 99 95 91 90 89 88 86 84 87 90 93 93 94 92 87 83 77 75 75 73 72 70 69 66 64 67 73 73 68 66 63 58
148 152 157 168 170 172 173 172 172 167 162 162 163 163 163 161 160 158 158 159 160 160 159 156 153 154 153 151 149 142 144 145 139 134 131 130 127 127 130 127 125 121 119 118 115 116 114 115 116 115 113 109 106 101 94 90 89 91 94 93 90 91 93 96 95 94 91 84 82 76 72 74 72 71 72 68 64 64 64 67 69 70 66 61 63
148 150 157 166 167 172 175 175 173 167 163 162 162 161 160 159 158 157 159 161 163 167 168 167 158 153 155 154 149 143 145 146 143 138 132 132 129 129 133 129 124 123 122 120 119 118 117 120 121 120 116 112 108 99 91 87 86 91 100 106 101 98 98 98 96 96 90 80 76 75 75 78 75 72 72 67 64 65 66 66 66 69 63 50 53
148 150 154 161 165 173 176 176 173 167 163 161 162 161 160 159 158 157 158 158 161 164 168 172 163 153 155 160 155 147 146 144 143 138 134 135 132 130 132 129 127 126 123 122 121 120 120 123 124 123 118 113 108 97 88 83 81 91 105 117 114 107 105 102 100 96 85 74 66 70 73 76 77 73 69 66 65 67 69 69 67 69 70 53 45
147 149 153 159 164 173 177 175 173 167 160 161 166 163 161 160 158 156 155 156 155 155 155 162 160 153 153 159 154 147 148 147 142 138 139 137 131 132 133 131 130 127 125 125 123 123 121 123 127 125 121 116 109 99 90 82 79 90 108 124 123 114 111 106 102 90 77 64 59 68 71 75 79 75 70 69 69 70 68 68 69 68 73 70 54
147 149 153 158 165 176 177 175 174 167 159 162 169 166 163 160 157 156 157 155 151 148 139 144 151 151 153 154 150 149 151 148 143 141 142 136 130 134 134 132 131 128 127 127 126 125 122 125 130 128 123 119 111 103 95 86 79 87 111 128 128 119 114 109 99 82 72 65 62 67 71 75 80 77 71 71 72 69 60 55 58 59 63 70 65
148 149 154 158 167 178 177 174 174 167 160 163 169 168 167 160 158 157 157 152 148 145 136 137 145 150 153 154 152 152 152 147 144 144 142 135 134 136 135 134 132 129 129 129 130 129 126 130 133 130 126 121 114 107 99 89 81 92 119 131 131 122 116 110 95 78 68 68 65 66 74 74 77 78 70 68 69 69 63 57 56 54 54 61 61
147 149 154 157 169 179 177 175 173 167 161 164 169 170 169 159 156 157 155 150 148 145 138 138 145 151 154 156 154 153 155 151 147 147 143 136 137 139 137 136 133 131 132 132 133 131 131 135 136 133 130 126 119 109 103 94 88 104 126 134 131 123 118 106 91 79 70 72 68 69 78 77 75 75 69 65 65 69 74 72 69 62 55 54 52
146 149 152 157 173 177 175 175 173 167 162 165 168 169 170 158 154 156 154 149 147 145 142 141 145 150 153 156 155 156 159 156 151 150 145 140 141 142 138 137 135 135 134 133 134 132 136 140 137 136 133 131 122 111 106 101 99 115 130 134 128 122 113 97 88 82 74 74 72 73 76 76 77 74 68 65 65 65 67 65 65 63 58 56 54
147 149 152 159 176 176 174 176 172 168 163 165 168 169 171 162 155 156 155 149 147 147 146 147 148 149 152 153 155 159 160 158 155 150 147 144 144 143 140 139 137 138 135 136 138 138 143 144 139 138 135 133 124 115 112 109 111 121 132 134 127 119 105 91 86 81 73 72 72 74 73 74 77 74 70 67 68 67 66 66 65 65 64 63 61
148 149 153 159 174 175 175 177 171 169 164 165 171 170 172 166 155 155 157 151 148 146 151 154 151 149 153 153 155 160 159 160 157 149 148 149 147 145 145 143 142 143 139 141 144 143 147 147 143 140 136 133 122 115 115 116 121 128 134 133 125 115 104 92 82 77 72 73 71 71 73 77 77 73 75 72 70 70 70 73 73 74 73 69 65
148 148 153 157 169 174 177 176 172 170 165 166 172 172 173 167 157 159 161 157 153 145 152 157 154 151 155 157 156 158 157 160 160 153 151 154 154 150 149 148 148 147 142 143 144 145 149 149 145 141 138 131 120 117 118 122 128 134 136 132 123 111 105 94 79 81 73 74 71 67 74 79 77 73 79 76 71 76 78 81 81 79 78 74 69
147 148 152 157 166 174 178 176 174 171 167 168 174 175 172 168 161 163 163 163 161 148 151 157 156 155 159 163 157 156 155 156 161 160 156 159 160 155 155 153 154 149 143 145 146 148 150 149 146 141 137 129 123 120 122 130 134 138 137 131 121 110 109 99 78 81 68 71 68 66 78 79 77 74 76 74 78 85 85 86 84 82 80 77 73
149 150 152 156 163 171 177 177 174 171 170 169 175 176 171 170 166 164 164 168 166 155 153 158 159 159 164 166 162 158 152 150 159 164 164 163 163 163 163 159 157 151 147 150 148 149 149 148 147 141 136 130 125 122 129 136 140 141 139 133 122 112 113 101 75 77 65 67 65 67 80 77 75 75 74 79 90 93 91 88 86 84 81 78 75
150 152 152 156 161 167 173 176 175 172 173 172 176 178 172 172 170 165 165 172 171 162 159 160 162 161 166 169 168 165 157 153 156 163 166 164 163 164 166 164 159 152 152 155 150 150 149 149 147 142 137 131 128 126 134 142 145 145 142 137 127 117 113 100 78 75 65 64 64 66 77 77 77 82 84 92 98 96 93 91 87 85 82 79 74
152 155 154 157 161 167 171 174 175 173 175 175 178 180 175 173 173 168 167 174 174 168 164 162 163 161 168 173 173 171 166 162 159 163 166 165 166 163 164 163 159 154 157 159 154 152 150 150 148 144 139 134 135 133 136 146 151 150 147 141 131 119 107 97 81 77 70 64 67 71 78 80 81 93 100 101 102 99 95 92 88 86 82 76 66
156 157 157 159 164 169 172 173 174 173 174 176 179 182 180 175 175 172 169 175 177 172 168 167 165 161 168 176 179 177 172 169 166 168 169 168 168 166 168 164 161 158 162 164 159 156 153 152 150 147 144 140 140 141 142 148 155 156 154 149 139 118 96 87 79 76 70 63 67 76 83 86 92 104 107 105 105 102 96 93 91 91 83 73 64
159 161 161 164 168 171 173 174 174 174 173 175 179 181 183 180 178 176 172 176 179 175 171 170 167 163 166 175 182 180 175 176 174 175 176 173 168 170 177 174 168 163 165 170 164 161 158 155 154 151 149 148 147 149 149 151 158 159 158 155 138 110 87 84 82 73 70 68 73 85 89 94 105 108 106 106 106 102 98 98 96 91 82 73 63
163 167 168 170 173 174 176 176 175 176 174 174 177 178 184 183 179 179 175 177 180 177 173 172 169 166 164 170 175 173 174 180 180 180 183 182 176 176 182 183 179 170 170 174 169 167 164 160 159 156 153 155 153 154 155 157 158 157 158 150 124 104 97 97 88 79 77 76 80 93 96 100 107 107 105 106 104 102 102 102 95 82 70 55 33
167 173 175 176 177 178 179 178 177 177 175 174 176 177 180 181 180 180 177 179 181 178 175 174 173 169 165 165 165 168 173 179 179 181 184 185 185 182 178 184 189 182 177 178 176 173 171 168 166 163 160 159 153 154 160 160 159 155 152 135 106 109 108 102 95 89 85 82 89 98 101 106 107 104 104 102 100 105 106 100 88 68 49 24 6
172 175 179 180 180 182 182 182 180 176 176 174 176 177 176 180 180 179 178 181 181 180 179 178 179 174 170 169 167 170 172 175 178 179 178 176 183 185 179 185 193 192 186 183 181 179 178 175 174 171 165 162 160 164 167 161 161 157 150 131 109 117 110 109 102 94 92 94 104 107 106 107 105 103 105 101 100 107 108 103 78 35 18 6 359
175 175 178 181 182 184 183 185 182 177 178 175 177 177 174 180 181 179 180 181 181 183 185 185 185 179 174 174 174 174 171 173 176 176 173 171 179 185 184 184 190 199 192 185 186 187 184 181 181 176 171 177 183 185 176 165 167 167 165 150 123 120 117 120 110 103 105 107 111 110 108 104 99 101 100 100 106 107 104 89 33 9 10 13 23
174 175 176 181 183 185 184 185 184 180 181 178 179 179 175 180 183 182 181 182 183 184 187 188 188 182 177 177 178 175 172 172 175 176 176 177 181 185 188 186 189 199 190 184 192 193 188 187 187 184 187 194 195 193 185 175 175 179 178 155 129 125 126 122 114 108 109 114 116 115 112 101 92 92 90 105 115 99 61 11 355 7 31 43 54
175 177 175 181 184 186 186 186 186 183 184 182 181 182 180 181 185 185 183 185 184 184 188 189 188 184 179 178 178 175 173 172 173 178 178 180 182 181 186 188 189 192 187 188 193 191 191 193 191 192 198 198 194 191 188 184 183 185 176 152 135 131 132 128 122 112 110 118 124 124 113 100 96 93 95 107 105 70 9 344 355 36 61 62 64
175 179 176 179 183 186 188 187 187 186 185 185 183 183 185 185 186 188 186 186 186 187 190 190 188 184 182 180 178 176 175 173 173 176 176 178 179 177 179 183 186 187 187 191 191 189 191 194 194 194 198 197 192 187 186 187 186 188 175 153 142 139 139 135 130 120 114 112 117 128 119 111 112 109 115 120 108 49 356 6 50 71 72 72 73
171 177 176 177 183 187 188 189 188 187 186 186 185 184 187 190 187 189 191 187 187 190 193 192 188 184 184 182 180 178 176 175 173 174 175 175 175 173 173 176 182 185 185 189 189 188 190 192 193 193 199 198 190 184 185 187 186 185 169 154 148 148 144 140 135 126 121 109 103 122 130 123 121 119 129 140 120 64 56 73 89 92 89 87 87
171 174 176 177 181 185 188 190 189 188 188 186 188 187 188 192 190 191 194 190 190 194 196 193 188 185 186 183 181 179 177 176 174 173 173 172 172 170 170 172 177 179 181 185 185 186 188 190 192 195 201 200 189 184 187 189 186 177 162 156 154 154 149 144 141 129 122 111 105 126 141 132 130 127 125 122 94 78 80 92 102 102 99 97 97
172 172 176 178 179 184 188 192 191 190 190 188 189 190 189 193 193 193 195 193 193 196 198 195 187 185 185 183 182 180 177 176 174 172 170 170 170 170 170 171 173 174 177 183 184 183 187 191 194 198 201 202 194 187 190 192 182 167 158 160 159 156 153 148 142 131 122 113 111 126 140 140 134 130 119 108 102 100 101 104 107 105 102 102 100
174 173 176 179 181 184 187 191 192 191 191 190 190 192 192 194 194 194 196 196 196 197 199 195 187 184 184 181 182 181 177 174 173 170 168 168 169 170 170 168 171 173 176 181 183 185 191 194 195 199 201 201 196 190 192 188 174 167 166 165 161 157 155 144 133 128 122 117 115 118 127 134 133 129 119 117 116 116 116 115 113 109 106 106 103
178 179 179 184 189 187 187 189 191 192 192 192 192 193 194 195 195 195 196 197 197 199 200 195 186 183 181 179 179 179 176 173 172 169 167 167 168 169 169 170 171 174 179 181 183 187 196 198 197 200 200 199 195 188 186 182 176 178 177 170 165 160 152 142 138 135 126 120 119 117 118 120 120 125 127 126 122 122 124 122 119 116 112 110 106
183 184 185 189 192 189 190 191 192 193 193 193 193 194 195 195 196 197 197 197 198 201 202 194 186 182 179 176 175 175 173 171 170 168 165 165 166 168 170 172 172 174 179 181 185 191 196 200 199 196 196 194 188 179 179 184 182 180 179 173 167 161 150 146 149 145 133 125 124 126 127 120 112 118 129 128 123 124 126 124 123 123 120 114 109
183 186 187 188 192 191 191 193 194 194 193 193 193 194 196 195 196 197 197 196 197 202 203 193 186 181 177 174 174 174 174 172 171 170 169 169 169 171 175 177 177 179 182 186 190 194 199 201 196 192 190 189 185 181 183 184 178 173 173 173 165 161 154 149 149 141 133 128 127 129 134 130 123 126 131 134 133 131 129 129 129 127 123 118 111
181 184 186 186 190 191 190 192 193 194 194 194 193 194 195 195 196 197 197 194 195 202 202 192 186 182 178 178 180 181 180 178 178 177 177 176 177 180 183 184 184 184 187 192 195 199 203 200 195 189 185 188 187 184 186 180 172 169 168 168 163 161 156 147 145 140 132 131 133 131 132 139 143 141 138 141 143 140 138 136 136 134 128 122 109
182 181 183 184 188 191 191 190 191 193 194 194 194 194 194 196 197 197 197 194 194 201 201 192 188 185 183 185 187 185 184 184 183 183 184 184 185 185 185 184 185 187 192 195 197 201 201 197 194 188 183 186 187 185 183 173 167 166 165 166 166 162 154 148 146 140 133 132 133 131 134 141 150 154 150 147 146 148 149 145 142 141 136 129 113
184 181 182 183 186 191 193 191 191 192 193 194 194 194 194 196 197 198 199 196 196 201 200 193 189 188 188 189 190 188 187 188 187 189 191 190 190 187 183 183 183 189 194 194 198 199 195 192 190 189 185 182 185 185 173 162 162 162 163 168 167 160 155 152 150 144 143 142 139 137 140 143 150 157 161 159 154 155 162 165 161 156 156 152 129
187 186 185 184 184 188 192 192 191 191 192 193 194 194 195 195 197 199 200 199 199 202 201 194 191 191 192 190 190 191 190 191 190 195 197 194 192 186 181 184 186 191 195 196 199 198 193 188 185 188 186 181 186 185 168 157 159 158 162 171 164 155 156 156 155 156 158 155 151 148 146 147 154 160 165 169 164 160 169 180 178 171 174 166 144
187 188 187 188 187 185 190 192 191 192 192 192 193 194 195 195 197 199 200 202 202 203 202 197 193 193 195 192 192 192 192 193 193 197 199 195 193 188 183 186 189 192 196 198 199 195 193 188 184 185 183 181 184 181 168 155 154 158 164 165 156 151 157 162 165 170 172 166 159 156 156 154 158 164 167 169 170 167 167 175 177 172 175 175 168
187 190 190 193 192 185 188 192 193 192 189 190 191 193 196 196 197 198 200 202 202 203 203 200 196 195 195 193 193 194 193 195 195 197 198 194 194 191 186 189 191 194 197 200 199 194 194 191 187 185 182 178 173 171 165 154 148 151 156 154 153 160 168 174 179 181 181 178 172 166 164 163 164 168 169 166 166 168 169 172 176 167 161 171 173
189 197 194 195 193 186 186 189 193 193 189 189 190 193 197 196 196 198 198 200 201 202 204 203 200 197 196 194 195 196 194 195 196 198 198 195 195 193 189 192 196 200 201 202 201 196 194 191 186 186 186 182 172 167 162 156 152 151 152 146 157 180 190 193 194 196 195 190 188 183 174 174 175 170 167 164 159 161 165 169 173 168 165 169 169
190 199 196 191 190 186 185 186 190 194 193 191 192 197 199 196 196 197 197 199 200 202 204 205 203 199 196 196 196 197 197 196 195 200 201 197 196 196 194 196 201 204 206 206 202 196 194 189 184 186 190 190 182 171 166 168 169 167 165 159 170 198 210 216 217 208 206 205 199 193 185 185 185 176 170 166 164 166 167 170 171 170 174 178 179
191 199 199 192 189 189 187 186 188 192 195 195 196 198 198 196 193 194 197 199 201 203 205 204 204 200 195 195 196 197 201 200 196 200 205 202 199 198 197 200 204 206 208 205 200 197 196 191 189 189 188 189 186 178 178 187 192 175 170 179 190 200 210 214 218 216 210 211 207 200 197 196 193 182 177 176 175 177 175 173 174 174 181 193 202
191 200 198 189 191 193 189 187 187 190 193 193 195 196 195 193 189 191 196 200 202 202 203 204 204 201 194 194 197 198 202 203 201 202 206 206 203 200 198 201 205 208 210 205 200 200 197 192 194 194 189 189 187 184 190 202 204 183 182 201 186 202 234 201 195 206 207 210 212 206 203 203 201 188 185 192 186 185 186 180 180 182 190 203 219
194 201 196 191 195 194 189 187 187 189 189 186 189 192 192 191 186 187 193 198 203 202 202 203 203 202 196 194 197 199 202 205 205 203 205 208 206 201 200 201 205 207 210 208 203 203 200 195 196 197 196 196 192 188 193 204 210 207 213 227 183 220 267 168 170 192 199 209 214 207 209 208 205 199 198 204 194 191 192 187 188 191 199 210 223
196 199 198 199 200 193 188 188 188 190 188 182 184 188 193 194 189 188 191 196 202 202 202 202 200 201 199 195 197 202 205 206 206 204 205 209 207 204 203 204 205 206 209 208 204 203 202 198 197 200 203 205 201 195 196 200 210 220 225 240 255 279 299 146 160 182 185 206 213 205 211 210 209 208 206 210 202 196 196 193 196 199 204 213 220
198 197 198 201 199 192 189 189 190 191 187 183 182 184 192 197 194 191 193 198 201 202 203 203 202 203 200 195 196 203 207 206 207 206 207 209 208 207 207 207 207 207 208 207 204 203 202 199 199 202 205 207 206 204 204 199 204 219 223 234 250 263 268 229 244 253 179 200 208 204 209 207 209 213 212 214 206 198 197 199 202 202 207 211 214
200 196 196 197 196 193 191 190 190 189 187 185 185 186 190 196 197 195 196 199 200 202 203 205 207 206 202 199 199 203 206 206 207 207 208 209 207 209 210 209 209 209 207 206 205 203 201 199 201 205 207 208 208 210 211 201 205 217 216 225 237 243 250 248 257 269 262 230 200 196 205 204 205 210 214 218 209 198 197 203 207 203 205 206 211
202 199 197 195 194 192 189 190 193 193 189 187 189 191 192 192 193 194 196 198 199 202 202 204 207 204 201 200 200 203 204 204 206 207 209 208 207 210 212 210 210 209 207 206 204 203 202 200 203 207 209 212 212 215 218 211 215 221 212 218 230 233 239 243 250 257 262 266 218 187 194 194 202 209 209 213 206 196 197 203 208 204 202 204 212
201 201 198 193 190 188 186 188 195 197 192 188 190 194 196 195 192 192 195 196 197 200 201 203 204 202 201 199 199 201 203 202 203 208 210 208 208 211 211 211 211 209 207 206 203 202 204 204 207 210 212 216 218 220 226 224 223 225 220 222 226 228 234 238 241 243 247 253 252 223 191 184 204 206 199 205 202 198 201 202 205 208 208 208 213
194 196 197 195 190 187 189 192 197 197 194 193 195 198 202 203 198 194 194 193 192 195 199 201 200 201 200 198 198 200 201 201 202 207 211 209 209 211 211 211 211 209 208 206 202 201 204 206 210 214 216 222 224 224 230 233 232 229 226 226 227 228 232 234 235 235 237 239 249 251 213 205 226 206 191 199 200 200 204 201 206 209 207 213 215